Flag for Germany Weather past 2 weeks in Schweinfurt, Bavaria, Germany

Now
29 °F

Fog.


Feels Like: 29 °F
Forecast: 31 / 33 °F
Wind: 2 mph from Southeast

Location: Wuerzburg

Current Time: Dec 26, 2014 at 10:39:17 PM

Latest Report: Dec 26, 2014 at 10:00 PM


Visibility: 4 mi

Pressure: 30.31 "Hg

Humidity: 98%

Dew point: 29 °F

Location of SchweinfurtLocation

Historic Weather in Schweinfurt — Graph

°F

Schweinfurt temperature yesterday

Maximum temperature yesterday: 46 °F (at 12:00 AM)
Minimum temperature yesterday: 36 °F (at 10:00 AM)
Average temperature yesterday: 40 °F

Past Weeks' High & Low Weather Summary

 TemperatureHumidityPressure
High55 °F (Dec 18, 10:00 PM)100% (Dec 14, 7:00 AM)30.50 "Hg (Dec 14, 7:00 AM)
Low30 °F (Dec 26, 9:00 PM)56% (Dec 15, 2:00 PM)29.65 "Hg (Dec 12, 7:00 PM)
Average43 °F86%30.08 "Hg
* Reported Dec 11 9:00 PM — Dec 26 9:00 PM, Schweinfurt, Weather by CustomWeather, © 2014

Note: Actual official high and low records may vary slightly from our data, if they occured in-between our weather recording intervals... More about our weather records

Advertising

Schweinfurt weather history for previous 24 hours

 ConditionsComfort  
Time TempWeatherWind HumidityBarometerVisibility
9:00 PM
Dec 26
30 °FPassing clouds.2 mph99%30.33 "Hg6 mi
8:00 PM30 °FClear.2 mph98%30.35 "Hg6 mi
7:00 PM32 °FPassing clouds.1 mph93%30.36 "Hg14 mi
6:00 PM34 °FOvercast.1 mph88%30.37 "Hg19 mi
5:00 PM36 °FSnow flurries. Overcast.3 mph82%30.37 "Hg16 mi
4:00 PM36 °FSnow flurries. Partly sunny.3 mph87%30.37 "Hg19 mi
3:00 PM37 °FSnow flurries. Overcast.3 mph78%30.37 "Hg25 mi
2:00 PM38 °FPartly sunny.5 mph76%30.37 "Hg25 mi
1:00 PM38 °FPassing clouds.6 mph88%30.38 "Hg16 mi
12:00 PM36 °FLight rain. Low clouds.5 mph88%30.40 "Hg3 mi
11:00 AM37 °FPartly sunny.5 mph83%30.41 "Hg25 mi
10:00 AM35 °FPassing clouds.3 mph92%30.41 "Hg12 mi
9:00 AM33 °FPartly sunny.3 mph94%30.41 "Hg19 mi
8:00 AM33 °FPassing clouds.3 mph93%30.39 "Hg16 mi
7:00 AM34 °FPassing clouds.3 mph92%30.39 "Hg16 mi
6:00 AM34 °FPassing clouds.3 mph90%30.38 "Hg19 mi
5:00 AM34 °FPassing clouds.3 mph92%30.39 "Hg11 mi
4:00 AM34 °FPassing clouds.3 mph92%30.38 "Hg12 mi
3:00 AM35 °FOvercast.5 mph90%30.38 "Hg12 mi
2:00 AM35 °FOvercast.3 mph90%30.36 "Hg17 mi
1:00 AM35 °FClear.5 mph87%30.34 "Hg22 mi
12:00 AM35 °FPassing clouds.5 mph86%30.34 "Hg22 mi
11:00 PM
Dec 25
37 °FClear.5 mph83%30.34 "Hg28 mi
10:00 PM38 °FLight rain. Passing clouds.7 mph88%30.32 "Hg14 mi
Weather by CustomWeather, © 2014

See weather overviewHow to use our weather pages